COSMOS 2490

Satellite information

Favourite Embed

Satellite Type and Status

PAYLOADIN ORBIT

Key statistics

Satellite COSMOS 2490 at a glance.

Uptime

4153

Days in orbit

Revolutions

≈ 12.4

Per day

Orbit

LEO

Low Earth Orbit

Inclination

82.5

Latest

Satellite identification and parameters

Extended collection of information and parameters for COSMOS 2490.

Object identification

Identified? True

Debris? False

Object name: COSMOS 2490

International designator: 2013-076C

Object number (NORAD): 39485

Object ID (CCSDS): 39485

Country: COMMONWEALTH OF INDEPENDENT STATES (CIS)

Current information (Y/N): Y

RCS size: LARGE

Orbital parameters

Period: 115.862 minutes

Inclination: 82.4839 deg

SMA: 7872.635 km

Apoapsis: 1510.225 km

Periapsis: 1478.775 km

RAAN: 60.7475 deg

Eccentricy: 0.0019974

Argument of periapsis: 276.979 deg

Mean anomaly: 82.9017 deg

Mean motion: 12.42861119 rev/day

Mean motion (dot): 0.00000017 rev/day2

B* drag term: 0.000049231 1/REarth

Two-line elements (TLE)

Creation date: May 8, 2025, 3:01 a.m.

Reference frame: TEME

Reference center: EARTH

Epoch: May 7, 2025, 10:01 p.m. UTC

TLE line 0: 0 COSMOS 2490

TLE line 1: 1 39485U 13076C 25127.91785640 .00000017 00000-0 49231-4 0 9994

TLE line 2: 2 39485 82.4839 60.7475 0019974 276.9790 82.9017 12.42861119515535

Live tracking on map

Real-time ground track for satellite COSMOS 2490.

In-orbit conjunctions

There are no conjunctions computed for COSMOS 2490, at the moment. Check back to stay up to date, as we update our databases every day.

Go to all conjunctions

Associated space launch

COSMOS 2490 was lifted into orbit during the mission ‘Rokot / Briz-KM | 3 x Strela-3M (Kosmos-2488, Kosmos-2489, Kosmos-2490) & Kosmos-2491’, on board a Rokot/Briz-KM space rocket.

The launch took place on Dec. 25, 2013, 12:31 a.m. from 133/3 (133L).

For more information about the launch, click the button.

Launch to space Rokot / Briz-KM | 3 x Strela-3M (Kosmos-2488, Kosmos-2489, Kosmos-2490) & Kosmos-2491
Rokot / Briz-KM | 3 x Strela-3M (Kosmos-2488, Kosmos-2489, Kosmos-2490) & Kosmos-2491

Agency: N/A

Status: Launch Successful

Launch date: Dec. 25, 2013, 12:31 a.m. UTC

Rocket: Rokot/Briz-KM

Launch pad: 133/3 (133L)

Location: Plesetsk Cosmodrome, Russian Federation

...

Latest news about this satellite

There are no fresh news available about this satellite. Check back as we update our databases every day.


Newsletter sign-up

Weekly statistics, charts and insights to help you stay on top of the space industry.